TimeAKST,TemperatureF,Dew PointF,Humidity,Sea Level PressureIn,VisibilityMPH,Wind Direction,Wind SpeedMPH,Gust SpeedMPH,PrecipitationIn,Events,Conditions,WindDirDegrees,DateUTC
12:38 AM,37.4,33.8,87,29.51,10.0,ESE,13.8,-,0.01,Rain,Light Rain,120,2013-02-20 09:38:00
12:53 AM,37.9,34.0,86,29.49,10.0,ESE,12.7,-,0.01,Rain,Light Rain,120,2013-02-20 09:53:00
1:53 AM,39.0,33.1,79,29.45,10.0,ESE,16.1,-,0.00,Rain,Light Rain,120,2013-02-20 10:53:00
3:50 AM,39.2,33.8,81,29.44,10.0,ESE,18.4,-,0.00,Rain,Light Rain,110,2013-02-20 12:50:00
3:53 AM,39.0,34.0,82,29.44,10.0,ESE,13.8,23.0,0.00,Rain,Light Rain,110,2013-02-20 12:53:00
4:26 AM,37.4,35.6,93,29.46,6.0,South,13.8,20.7,0.05,Rain,Light Rain,190,2013-02-20 13:26:00
4:53 AM,37.9,36.0,93,29.48,8.0,South,9.2,-,0.08,Rain,Light Rain,170,2013-02-20 13:53:00
5:17 AM,35.6,35.6,100,29.48,6.0,East,5.8,-,0.04,Snow,Light Snow,100,2013-02-20 14:17:00
5:46 AM,37.4,35.6,93,29.48,10.0,SE,9.2,-,0.08,Rain,Light Rain,130,2013-02-20 14:46:00
5:53 AM,37.0,35.1,93,29.49,7.0,East,9.2,-,0.08,Rain,Light Rain,100,2013-02-20 14:53:00
6:33 AM,37.4,35.6,93,29.48,7.0,East,6.9,-,0.00,,Overcast,100,2013-02-20 15:33:00
6:53 AM,37.0,34.0,89,29.48,7.0,East,6.9,-,0.00,Rain,Light Rain,80,2013-02-20 15:53:00
7:03 AM,35.6,33.8,93,29.49,7.0,ESE,9.2,-,0.00,,Overcast,110,2013-02-20 16:03:00
7:19 AM,37.4,33.8,87,29.48,7.0,East,8.1,-,0.00,,Overcast,90,2013-02-20 16:19:00
7:53 AM,39.0,34.0,82,29.48,10.0,SE,9.2,-,0.00,,Overcast,130,2013-02-20 16:53:00
8:16 AM,39.2,35.6,87,29.48,8.0,SE,10.4,-,N/A,,Overcast,130,2013-02-20 17:16:00
8:29 AM,39.2,35.6,87,29.47,6.0,SE,9.2,-,0.00,Rain,Light Rain,130,2013-02-20 17:29:00
8:37 AM,39.2,35.6,87,29.48,6.0,SSE,21.9,27.6,0.00,Rain,Light Rain,160,2013-02-20 17:37:00
8:49 AM,39.2,35.6,87,29.48,6.0,SSE,16.1,21.9,0.00,,Overcast,160,2013-02-20 17:49:00
8:53 AM,37.9,35.1,89,29.48,6.0,SSE,16.1,-,0.00,,Overcast,160,2013-02-20 17:53:00
9:31 AM,37.4,35.6,93,29.47,4.0,SE,4.6,-,0.01,Rain,Light Rain,130,2013-02-20 18:31:00
9:53 AM,37.9,35.1,89,29.47,3.0,SSE,10.4,18.4,0.03,Rain,Rain,160,2013-02-20 18:53:00
9:56 AM,37.4,35.6,93,29.48,1.5,SSW,16.1,24.2,0.01,Rain,Rain,210,2013-02-20 18:56:00
10:06 AM,37.4,35.6,93,29.48,4.0,South,23.0,31.1,0.04,Rain,Light Rain,190,2013-02-20 19:06:00
10:09 AM,37.4,35.6,93,29.48,4.0,South,18.4,31.1,0.04,Rain,Light Rain,180,2013-02-20 19:09:00
10:13 AM,37.4,35.6,93,29.48,5.0,South,15.0,31.1,0.04,Rain,Light Rain,170,2013-02-20 19:13:00
10:53 AM,37.9,36.0,93,29.49,6.0,South,13.8,-,0.08,Rain,Light Rain,180,2013-02-20 19:53:00
11:17 AM,37.4,35.6,93,29.48,2.0,South,12.7,-,0.01,Rain,Rain,170,2013-02-20 20:17:00
11:24 AM,37.4,35.6,93,29.48,5.0,South,11.5,-,0.02,Rain,Light Rain,170,2013-02-20 20:24:00
11:53 AM,37.9,36.0,93,29.48,5.0,SW,18.4,26.5,0.04,Rain,Light Rain,220,2013-02-20 20:53:00
12:24 PM,39.2,37.4,93,29.47,3.0,SSW,11.5,-,0.01,Rain,Light Rain,200,2013-02-20 21:24:00
12:26 PM,39.2,37.4,93,29.47,1.5,SSW,19.6,26.5,0.03,Rain,Heavy Rain,200,2013-02-20 21:26:00
12:36 PM,37.4,35.6,93,29.47,3.0,South,17.3,25.3,0.05,Rain,Light Rain,190,2013-02-20 21:36:00
12:51 PM,37.4,35.6,93,29.47,5.0,South,11.5,23.0,0.06,Rain,Light Rain,170,2013-02-20 21:51:00
12:53 PM,37.0,36.0,96,29.47,5.0,South,11.5,-,0.06,Rain,Light Rain,170,2013-02-20 21:53:00
1:16 PM,37.4,35.6,93,29.45,7.0,SSE,9.2,-,0.00,,Overcast,150,2013-02-20 22:16:00
1:32 PM,39.2,35.6,87,29.44,5.0,SSE,13.8,-,0.00,Rain,Light Rain,160,2013-02-20 22:32:00
1:53 PM,37.9,34.0,86,29.44,4.0,South,18.4,27.6,0.01,Rain,Light Rain,170,2013-02-20 22:53:00
2:06 PM,37.4,33.8,87,29.43,6.0,ESE,13.8,27.6,0.01,Rain,Light Rain,110,2013-02-20 23:06:00
2:17 PM,37.4,33.8,87,29.42,6.0,ESE,15.0,-,0.01,,Overcast,110,2013-02-20 23:17:00
2:49 PM,37.4,33.8,87,29.41,4.0,SSE,15.0,21.9,0.01,Rain-Snow,Light Rain,160,2013-02-20 23:49:00
2:53 PM,37.0,33.1,86,29.42,2.5,SE,13.8,21.9,0.02,Rain-Snow,Light Rain,130,2013-02-20 23:53:00
3:00 PM,37.4,33.8,87,29.41,3.0,SE,10.4,-,N/A,Rain,Light Rain,130,2013-02-21 00:00:00
3:11 PM,37.4,33.8,87,29.41,9.0,East,11.5,-,0.00,Rain,Light Rain,100,2013-02-21 00:11:00
3:22 PM,37.4,33.8,87,29.39,6.0,East,11.5,-,0.00,Rain,Light Rain,100,2013-02-21 00:22:00
3:44 PM,37.4,33.8,87,29.39,3.0,SSE,12.7,20.7,0.01,Rain-Snow,Light Snow,160,2013-02-21 00:44:00
3:53 PM,37.4,33.8,87,29.38,5.0,SE,13.8,17.3,N/A,Rain-Snow,Light Snow,130,2013-02-21 00:53:00
4:22 PM,37.4,33.8,87,29.36,7.0,ESE,11.5,-,0.01,Rain-Snow,Light Snow,120,2013-02-21 01:22:00
4:53 PM,37.0,34.0,89,29.34,8.0,ESE,11.5,-,0.02,Rain-Snow,Light Snow,120,2013-02-21 01:53:00
5:53 PM,37.0,34.0,89,29.31,9.0,ESE,12.7,20.7,0.01,Rain,Light Rain,120,2013-02-21 02:53:00
6:53 PM,37.0,34.0,89,29.28,10.0,SE,13.8,-,0.01,Rain,Light Rain,130,2013-02-21 03:53:00
7:12 PM,37.4,33.8,87,29.27,10.0,ESE,15.0,-,0.01,Rain,Light Rain,120,2013-02-21 04:12:00
7:53 PM,37.9,32.0,79,29.25,10.0,ESE,16.1,25.3,0.01,,Overcast,120,2013-02-21 04:53:00
8:53 PM,37.9,32.0,79,29.23,10.0,ESE,15.0,-,N/A,,Overcast,120,2013-02-21 05:53:00
9:53 PM,39.0,32.0,76,29.22,10.0,ESE,12.7,-,N/A,,Overcast,120,2013-02-21 06:53:00
10:53 PM,39.9,30.9,70,29.23,10.0,ESE,17.3,25.3,0.00,Rain,Light Rain,120,2013-02-21 07:53:00
11:53 PM,39.9,30.9,70,29.24,10.0,ESE,15.0,26.5,0.00,,Overcast,120,2013-02-21 08:53:00